This demonstration page uses our WeatherBlox Daily Observations layout. Learn more.

Left ArrowRight Arrow

34.74481, -87.66753

Hourly Observations for May 29, 2021

Temp ( °F °C ) Dew Point ( °F °C ) Humidity (%) Winds ( mph kmh ) Pressure ( in mb ) Visibility ( mi km ) Precip ( " mm )
12:30 am 00:30 Partly Cloudy 64 17.8 52 11.1 65 65 N 9 15 29.92 1013 10 16 0.00 0.00
12:48 am 00:48 Mostly Cloudy 63 17 50 10 64 64 N 8 13 29.92 1013 10 16 0.00 0.00
12:53 am 00:53 Partly Cloudy 63 17.2 50 10 63 63 N 8 13 29.92 1013 10 16 0.00 0.00
1:53 am 01:53 Clear 60 15.6 49 9.4 67 67 NNW 7 11 29.92 1013 10 16 0.00 0.00
2:53 am 02:53 Mostly Clear 59 15 49 9.4 69 69 NNW 6 9 29.93 1014 10 16 0.00 0.00
3:25 am 03:25 Mostly Cloudy 59 15 49 9.4 69 69 NNW 6 9 29.96 1014 10 16 0.00 0.00
3:53 am 03:53 Cloudy 59 15 48 8.9 67 67 NNW 8 13 29.94 1014 10 16 0.00 0.00
4:53 am 04:53 Cloudy 59 15 48 8.9 67 67 VRB 7 11 29.93 1014 10 16 0.00 0.00
5:53 am 05:53 Cloudy 59 15 48 8.9 67 67 N 9 15 29.94 1014 10 16 0.00 0.00
6:53 am 06:53 Cloudy 59 15 48 8.9 67 67 N 9 15 29.96 1015 10 16 0.00 0.00
7:53 am 07:53 Cloudy 59 15 47 8.3 64 64 NNW 9 15 29.98 1015 10 16 0.00 0.00
8:53 am 08:53 Cloudy 59 15 47 8.3 64 64 NNW 12 19 30.02 1017 10 16 0.00 0.00
9:53 am 09:53 Cloudy 60 15.6 47 8.3 62 62 N 8 13 30.01 1016 10 16 0.00 0.00
10:53 am 10:53 Cloudy 61 16.1 48 8.9 63 63 VRB 6 9 30.04 1017 10 16 0.00 0.00
11:53 am 11:53 Cloudy 61 16.1 48 8.9 63 63 NNW 9 15 30.04 1017 10 16 0.00 0.00
12:53 pm 12:53 Cloudy 63 17.2 49 9.4 60 60 VRB 7 11 30.03 1017 10 16 0.00 0.00
1:53 pm 13:53 Cloudy 63 17.2 49 9.4 60 60 N 6 9 30.03 1017 10 16 0.00 0.00
2:20 pm 14:20 Cloudy 64 17.8 49 9.4 58 58 WNW 5 7 30.04 1017 10 16 0.00 0.00
2:46 pm 14:46 Cloudy 63 17.2 50 10 63 63 WNW 8 13 30.04 1017 10 16 0.00 0.00
2:53 pm 14:53 Cloudy 62 16.7 50 10 65 65 NW 8 13 30.04 1017 10 16 0.00 0.00
3:31 pm 15:31 Cloudy 64 17.8 50 10 60 60 NNW 8 13 30.04 1017 10 16 0.00 0.00
3:53 pm 15:53 Cloudy 65 18.3 50 10 59 59 NNW 9 15 30.03 1017 10 16 0.00 0.00
4:40 pm 16:40 Cloudy 65 18.3 50 10 59 59 VRB 7 11 30.04 1017 10 16 0.00 0.00
4:51 pm 16:51 Cloudy 64 18 50 10 60 60 N 10 17 30.04 1017 10 16 0.00 0.00
4:53 pm 16:53 Cloudy 64 17.8 50 10 60 60 N 9 15 30.04 1017 10 16 0.00 0.00
5:53 pm 17:53 Cloudy 63 17.2 50 10 63 63 N 6 9 30.06 1018 10 16 0.00 0.00
6:53 pm 18:53 Cloudy 61 16.1 50 10 67 67 N 7 11 30.07 1018 10 16 0.00 0.00
7:53 pm 19:53 Cloudy 60 15.6 50 10 70 70 N 7 11 30.09 1019 10 16 0.00 0.00
8:53 pm 20:53 Cloudy 59 15 49 9.4 69 69 N 7 11 30.10 1019 10 16 0.00 0.00
9:41 pm 21:41 Cloudy 59 15 49 9.4 69 69 VRB 5 7 30.12 1020 10 16 0.00 0.00
9:53 pm 21:53 Cloudy 59 15 49 9.4 69 69 NNE 9 15 30.11 1020 10 16 0.00 0.00
10:53 pm 22:53 Cloudy 58 14.4 48 8.9 70 70 NNE 7 11 30.12 1020 10 16 0.00 0.00
11:53 pm 23:53 Cloudy 58 14.4 46 7.8 65 65 NE 8 13 30.13 1020 10 16 0.00 0.00

Powered by AerisWeather